Location: Gebenbach
(49.5378°N, 11.8735°E)
Time: 11:49:55
(UTC+00:00)

Cosmos 2297 Rocket - Pass Details

Date: 29 October 2020
Orbit: 838 x 845 km, 71.0° (Epoch: 24 November)

Event Time Altitude Azimuth Distance (km) Brightness Sun altitude
Rises 17:30:28 0° 327° (NNW) 3,415 5.8 -16.0°
Reaches altitude 10° 17:33:00 10° 322° (NW) 2,476 5.1 -16.4°
Maximum altitude 17:38:23 46° 250° (WSW) 1,123 3.3 -17.2°
Drops below altitude 10° 17:43:44 10° 179° (S) 2,458 4.6 -18.1°
Sets 17:46:15 0° 173° (S) 3,387 5.3 -18.5°
